Satellite-Ground Cal/Val Site Overpasses Predictions

Prediction of Satellite NPP Overpassing Cal/Val Site: Antarctic Dome C

Ground Cal/Val Site Location: Latitude: -75.10, Longitude: 123.35; Satellite-Ground Site NADIR distance within 100 km.

Table of predicted overpasses for the next 14.0 days since TLE Epoch: 7/9/2016
Interval Starting Time Ending Time Minimum Distance Time Minimum Distance (km)
1 07/10/2016 15:02:05 07/10/2016 15:02:29 07/10/2016 15:02:17 57.50
2 07/11/2016 14:43:14 07/11/2016 14:43:39 07/11/2016 14:43:27 51.66
3 07/12/2016 07:44:56 07/12/2016 07:45:16 07/12/2016 07:45:06 71.78
4 07/13/2016 07:26:02 07/13/2016 07:26:29 07/13/2016 07:26:15 36.26
5 07/15/2016 15:08:27 07/15/2016 15:08:36 07/15/2016 15:08:31 95.21
6 07/16/2016 14:49:27 07/16/2016 14:49:56 07/16/2016 14:49:42 16.32
7 07/18/2016 07:32:16 07/18/2016 07:32:45 07/18/2016 07:32:30 2.34
8 07/21/2016 14:55:42 07/21/2016 14:56:11 07/21/2016 14:55:56 20.32
9 07/22/2016 14:36:59 07/22/2016 14:37:13 07/22/2016 14:37:06 86.73
